Home   Weather   Wardha   Past weeks

Flag for India Past Weather in Wardha, Maharashtra, India — Yesterday and Last 2 Weeks

Now
61 °F

Haze.


Feels Like: 61 °F
Forecast: 58 / 82 °F
Wind: No wind

Location: Nagpur Sonegaon

Current Time: Dec 7, 2016 at 1:39:06 am

Latest Report: Dec 7, 2016 at 1:00 am


Visibility: 1 mi

Pressure: 30.01 "Hg

Humidity: 88%

Dew Point: 57 °F

Location of WardhaLocation

Past Weather in Wardha — Graph

°F

Wardha Temperature Yesterday

Maximum temperature yesterday: 88 °F (at 3:30 pm)
Minimum temperature yesterday: 52 °F (at 6:00 am)
Average temperature yesterday: 69 °F

High & Low Weather Summary for the Past Weeks

 TemperatureHumidityPressure
High90 °F (Nov 27, 1:30 pm)100% (Nov 24, 4:00 am)30.15 "Hg (Nov 24, 4:00 am)
Low52 °F (Dec 6, 6:00 am)17% (Dec 5, 12:30 pm)29.89 "Hg (Nov 22, 3:30 pm)
Average72 °F60%30.00 "Hg
* Reported Nov 21 11:30 pm — Dec 6 11:30 pm, Wardha, Weather by CustomWeather, © 2016

Note: Actual official high and low records may vary slightly from our data, if they occured in-between our weather recording intervals... More about our weather records

Advertising

Wardha Weather History for the Previous 24 Hours

Scroll right to see more
 ConditionsComfort  
Time TempWeatherWind HumidityBarometerVisibility
11:30 pm
Tue, Dec 6
61 °FHaze.No wind94%30.04 "Hg1 mi
10:30 pm63 °FHaze.No wind83%30.04 "Hg1 mi
10:00 pm63 °FHaze.2 mph83%30.04 "Hg1 mi
9:30 pm64 °FHaze.No wind78%30.04 "Hg1 mi
9:00 pm64 °FHaze.No wind83%30.04 "Hg1 mi
7:30 pm73 °FHaze.No wind65%30.04 "Hg1 mi
7:00 pm73 °FHaze.No wind65%30.01 "Hg1 mi
6:30 pm75 °FHaze.No wind61%30.01 "Hg1 mi
6:00 pm77 °FHaze.No wind61%30.01 "Hg1 mi
5:30 pm81 °FHaze.No wind54%29.98 "Hg1 mi
4:30 pm86 °FHaze.3 mph46%29.98 "Hg1 mi
4:00 pm88 °FHaze.3 mph40%29.98 "Hg1 mi
3:30 pm88 °FHaze.5 mph40%29.98 "Hg2 mi
3:00 pm86 °FHaze.6 mph38%29.98 "Hg2 mi
2:30 pm86 °FHaze.6 mph38%29.98 "Hg2 mi
1:30 pm82 °FHaze.6 mph42%30.01 "Hg2 mi
1:00 pm81 °FHaze.3 mph48%30.01 "Hg2 mi
12:30 pm81 °FHaze.3 mph45%30.04 "Hg2 mi
11:30 am79 °FHaze.5 mph45%30.07 "Hg2 mi
11:00 am73 °FHaze.2 mph65%30.09 "Hg2 mi
10:30 am72 °FHaze.2 mph65%30.09 "Hg2 mi
10:00 am68 °FHaze.3 mph73%30.09 "Hg2 mi
9:30 am63 °FHaze.2 mph77%30.09 "Hg2 mi
9:00 am63 °FHaze.No wind77%30.09 "Hg2 mi
8:30 am61 °FHaze.No wind83%30.09 "Hg2 mi
8:00 am59 °FFog.No wind82%30.09 "Hg1 mi
7:30 am57 °FFog.No wind88%30.07 "Hg1 mi
7:00 am52 °FFog.No wind94%30.07 "Hg1 mi
6:30 am52 °FFog.No wind94%30.04 "Hg1 mi
6:00 am52 °FHaze.No wind94%30.04 "Hg1 mi
4:30 am57 °FHaze.No wind88%30.01 "Hg1 mi
4:00 am57 °FHaze.No wind88%30.01 "Hg1 mi
3:30 am57 °FHaze.No wind88%30.01 "Hg1 mi
2:00 am59 °FHaze.No wind88%30.04 "Hg1 mi
Weather by CustomWeather, © 2016

See weather overviewHow to use our weather pages